SCP
0 0 0 0 0 0 0 0 0 0 0 0 0 0 0 0 0 0 0 0 0 0 0 0 0 0 0 0 0 0 0 0 0 0 0 0 0 0 0 0 0 0 0
0 0 0 0 0 0 0 0 0 0 0 0 0 0 0 0 0 0 0 0 0 0 0 0 0 0 0 0 0 0 0 0 0 0 0 0 0 0 0 0 0 0 0
0 0 0 0 0 0 0 0 0 0 0 0 0 0 0 0 0 0 0 0 0 0 0 0 0 0 0 0 0 0 0 0 0 0 0 0 0 0 0 0 0 0 0
0 0 0 0 0 0 0 0 0 0 0 0 0 0 0 0 0 0 0 0 0 0 0 0 0 0 0 0 0 0 0 0 0 0 0 0 0 0 0 0 0 0 0
0 0 0 0 0 0 0 0 0 0 0 0 0 0 0 0 0 0 0 0 0 0 0 0 0 0 0 0 0 0 0 0 0 0 0 0 0 0 0 0 0 0 0
0 0 0 0 0 0 0 0 0 0 0 0 0 0 0 0 0 0 0 0 0 0 0 0 0 0 0 0 0 0 0 0 0 0 0 0 0 0 0 0 0 0 0
0 0 0 0 0 0 0 0 0 0 0 0 0 0 0 0 0 0 0 0 0 0 0 0 0 0 0 0 0 0 0 0 0 0 0 0 0 0 0 0 0 0 0
0 0 0 0 0 0 0 0 0 0 0 0 0 0 0 0 0 0 0 0 0 0 0 0 0 0 0 0 0 0 0 0 0 0 0 0 0 0 0 0 0 0 0
0 0 0 0 0 0 0 0 0 0 0 0 0 0 0 0 0 0 0 0 0 0 0 0 0 0 0 0 0 0 0 0 0 0 0 0 0 0 0 0 0 0 0
0 0 0 0 0 0 0 0 0 0 0 0 0 0 0 0 0 0 0 0 0 0 0 0 0 0 0 0 0 0 0 0 0 0 0 0 0 0 0 0 0 0 0
0 0 0 0 0 0 0 0 0 0 0 0 0 0 0 0 0 0 0 0 0 0 0 0 0 0 0 0 0 0 0 0 0 0 0 0 0 0 0 0 0 0 0
0 0 0 0 0 0 0 0 0 0 0 0 0 0 0 0 0 0 0 0 0 0 0 0 0 0 0 0 0 0 0 1 1 1 0 0 0 0 0 0 0 0 0
0 0 0 0 0 0 0 0 0 0 0 0 0 0 0 0 0 0 0 0 1 1 1 1 1 1 0 0 0 0 0 1 1 1 0 0 0 0 0 0 0 0 0
0 0 0 0 0 0 0 0 0 0 0 0 0 0 0 0 0 1 1 1 1 1 1 1 1 1 0 0 0 0 0 0 1 1 0 0 0 0 0 0 0 0 0
0 0 0 0 0 0 0 0 0 1 1 1 1 1 1 1 1 1 1 1 1 1 1 1 1 1 0 0 0 0 0 0 0 0 0 0 0 0 0 0 0 0 0
0 0 0 0 0 0 0 1 1 1 1 1 1 1 1 1 1 1 1 1 1 1 1 1 1 1 0 0 0 0 0 0 0 0 0 0 0 0 0 0 0 0 0
0 0 0 0 0 1 1 1 1 1 1 1 1 1 1 1 1 1 1 1 1 1 1 1 1 1 1 0 0 0 0 0 0 0 0 0 0 0 0 0 0 0 0
0 0 0 0 1 1 1 1 1 1 1 1 1 1 1 1 1 1 1 1 1 1 1 1 1 1 1 0 0 0 0 0 0 0 0 0 0 0 0 0 0 0 0
0 0 0 0 1 1 1 1 1 1 1 1 1 1 1 1 1 1 1 1 1 1 1 1 1 1 1 0 0 0 0 0 0 0 0 0 0 0 0 0 0 0 0
0 0 0 0 1 1 1 1 1 1 1 1 1 1 1 1 1 1 1 1 1 1 1 1 1 1 1 0 0 0 0 0 0 0 0 0 0 0 0 0 0 0 0
0 0 0 0 0 0 0 0 0 0 0 0 0 1 1 1 1 1 1 1 1 1 1 1 1 1 1 0 0 0 0 0 0 0 0 0 0 0 0 0 0 0 0
0 0 0 0 0 0 0 0 0 0 0 0 0 0 0 1 1 1 1 1 1 1 1 1 1 1 1 0 0 0 0 0 0 0 0 0 0 0 0 0 0 0 0
0 0 0 0 0 0 0 0 0 0 0 0 0 0 0 0 0 1 1 1 1 1 1 1 1 1 1 1 0 0 0 0 0 0 0 0 0 0 0 0 0 0 0
0 0 0 0 0 0 0 0 0 0 0 0 0 0 0 0 0 1 1 1 1 1 1 1 1 1 1 1 0 0 0 0 0 0 0 0 0 0 0 0 0 0 0
0 0 0 0 0 0 0 0 0 0 0 0 0 0 0 0 0 0 0 0 0 0 0 1 1 1 1 0 0 0 0 0 0 0 0 0 0 0 0 0 0 0 0
0 0 0 0 0 0 0 0 0 0 0 0 0 0 0 0 0 0 0 0 0 0 0 0 1 1 0 0 0 0 0 0 0 0 0 0 0 0 0 0 0 0 0
Wind_Speed
7 5 5 5 5 5 5 6 5 4 4 3 2 2 1 1 1 1 2 2 2 3 3 2 2 2 2 2 2 2 2 2 2 2 2 2 1 0 0 0 0 1 2
6 6 6 6 6 7 7 6 6 5 5 3 3 2 2 1 1 1 1 2 2 3 3 3 3 2 2 2 2 3 2 1 1 2 1 1 1 1 1 0 1 1 1
10 8 7 7 7 7 8 7 7 6 5 4 3 3 2 2 1 1 1 1 2 3 3 3 3 3 3 3 3 3 3 2 1 1 2 2 2 1 1 1 0 1 0
10 9 8 8 9 9 8 7 7 6 5 5 4 4 3 2 2 2 1 1 2 3 3 3 3 3 3 3 3 3 3 3 2 1 1 1 2 2 1 1 1 1 1
11 11 11 11 9 8 8 7 6 5 5 5 5 4 3 2 1 1 2 1 1 2 2 3 3 3 3 3 3 3 3 3 3 2 2 1 1 1 2 1 1 1 1
11 10 10 8 8 7 7 7 7 6 5 5 5 5 4 4 3 2 2 1 1 1 2 3 3 3 3 3 3 3 4 3 3 2 2 2 2 2 2 2 1 1 1
10 10 10 10 9 9 9 8 8 7 6 6 5 5 5 5 4 3 3 2 1 2 3 3 3 3 3 3 3 3 3 4 4 4 3 3 2 2 2 2 1 1 1
10 11 12 11 11 11 10 9 9 8 7 6 6 5 5 3 3 3 3 3 3 3 3 3 3 4 4 4 4 3 3 3 3 4 3 2 3 3 3 3 3 1 1
10 11 10 11 11 12 12 11 10 8 8 8 6 5 5 4 4 3 3 2 2 2 3 3 3 3 4 4 4 3 3 3 3 3 3 3 3 3 3 3 3 3 2
8 9 9 10 10 10 9 9 10 9 8 7 6 5 5 5 4 3 3 3 2 2 2 3 3 3 3 3 3 2 2 3 2 2 3 3 2 2 3 3 3 3 3
8 8 8 9 9 8 8 9 8 8 7 7 6 5 5 5 4 4 3 3 2 2 2 3 3 2 3 3 3 3 3 3 3 3 3 3 3 2 3 3 3 3 3
6 6 7 7 7 8 8 8 8 8 7 7 6 6 5 4 4 4 4 3 3 3 3 2 2 3 3 3 4 4 4 4 4 3 3 4 3 3 3 3 3 3 4
4 5 5 6 6 6 7 7 7 8 7 6 6 5 5 5 5 5 4 4 4 3 2 2 3 2 2 2 3 3 3 4 4 3 4 4 3 3 2 3 3 3 3
4 5 5 5 5 5 6 6 6 7 7 6 6 6 6 6 5 5 4 4 4 4 3 3 3 2 2 2 3 3 3 3 3 3 3 3 3 3 3 3 3 3 3
4 4 4 4 5 5 5 5 5 6 7 7 7 7 6 5 5 4 4 4 4 4 4 3 3 2 2 3 3 3 3 3 3 2 3 3 3 3 3 3 3 3 3
4 4 4 4 5 5 5 5 5 6 7 7 7 6 5 5 5 4 4 3 3 3 3 3 3 3 2 2 4 3 3 3 3 3 2 2 2 2 2 3 4 5 5
4 4 4 5 5 5 5 6 6 5 6 6 6 5 5 5 4 4 4 4 4 3 3 3 3 3 3 3 3 4 2 2 3 3 2 2 2 2 2 1 2 3 4
3 3 3 3 3 4 4 5 5 5 5 4 4 4 5 5 5 5 5 4 4 4 4 4 4 3 2 3 4 4 3 2 3 3 3 3 3 2 2 2 1 2 3
2 2 2 2 2 3 5 6 5 5 5 5 5 4 5 5 4 5 5 4 4 3 3 3 3 3 2 3 4 4 2 2 3 3 3 3 3 3 3 2 2 3 3
1 2 2 2 2 2 4 5 5 5 4 4 4 4 5 5 5 5 4 3 3 3 3 3 2 3 3 2 3 4 2 2 2 2 2 3 4 3 4 4 3 4 4
2 3 4 3 2 2 4 4 4 4 4 3 3 3 4 5 5 4 3 3 3 2 2 1 1 1 2 2 3 4 2 2 2 2 2 2 4 4 5 5 4 6 4
3 3 4 3 1 2 4 4 3 3 3 3 3 2 2 3 3 4 3 3 4 3 2 1 0 1 1 1 2 4 4 3 3 2 2 2 3 4 5 4 4 4 3
3 3 4 3 2 2 3 3 2 2 3 3 3 3 3 2 3 4 4 3 3 3 2 2 2 1 1 1 2 3 4 4 3 2 2 2 3 3 3 4 3 2 2
2 2 3 3 2 2 2 3 2 2 3 3 3 3 3 2 2 2 2 3 3 3 2 2 2 1 1 1 1 1 2 2 2 1 1 1 1 1 2 1 1 2 2
1 1 2 2 2 1 1 1 1 2 2 2 2 2 2 3 2 2 1 1 1 3 4 3 3 3 2 3 3 2 2 2 2 1 0 0 1 1 1 1 1 2 2
1 1 1 1 1 0 1 0 1 3 3 2 2 2 2 2 2 2 2 4 1 0 1 2 3 2 2 2 2 2 2 2 3 2 1 2 2 2 2 2 2 2 3
Wind_Direction
219 199 190 181 170 170 170 173 166 162 146 136 141 141 158 165 157 173 168 168 166 160 156 159 155 155 160 164 150 130 123 110 113 95 58 29 33 55 6 309 271 267 260
211 202 190 180 181 181 180 178 176 170 170 167 154 145 136 137 156 156 150 173 173 174 172 171 173 168 159 152 150 140 132 140 136 128 111 21 348 350 26 1 251 277 282
206 203 193 188 185 187 185 185 182 177 177 163 125 99 80 64 84 109 185 198 178 178 176 174 173 173 170 177 174 163 158 168 169 155 153 160 220 292 330 342 328 311 290
204 200 194 191 193 193 185 181 180 179 175 160 151 151 157 174 191 181 190 204 178 178 179 175 175 178 177 181 188 174 169 161 177 185 190 179 161 168 286 317 323 315 281
199 197 196 196 195 185 180 181 178 179 174 168 167 164 173 189 175 158 164 193 192 185 182 180 179 185 188 189 186 172 173 174 178 180 169 146 134 158 175 250 298 315 286
198 198 196 188 186 178 176 177 177 186 180 176 175 177 186 186 171 182 187 199 203 207 203 191 189 191 191 191 192 185 182 186 183 183 178 172 174 183 181 206 239 261 280
194 193 188 184 184 182 182 181 183 192 185 183 188 190 191 185 189 196 193 198 213 223 219 199 193 195 197 192 182 183 194 193 192 196 198 198 202 175 169 172 200 233 271
193 193 192 188 186 185 185 184 188 193 187 189 197 193 188 186 195 199 194 202 213 223 214 196 199 202 196 188 179 187 199 194 203 211 204 205 211 192 185 179 171 197 263
191 192 188 187 186 186 187 187 189 191 190 193 193 192 189 191 197 200 202 210 217 219 205 195 197 198 190 185 178 192 201 191 203 214 211 210 213 199 200 190 180 178 217
186 188 186 187 188 189 186 183 186 193 192 189 193 193 190 194 194 189 198 204 213 205 187 193 194 193 189 183 178 190 193 190 210 208 207 217 216 202 195 191 190 190 196
186 184 183 185 182 179 180 184 185 184 184 186 187 185 186 188 185 192 202 201 198 185 189 188 180 185 196 190 184 199 191 200 217 214 210 223 214 208 206 195 189 193 186
176 173 175 172 174 178 181 185 184 185 189 184 179 185 184 180 186 197 201 196 198 195 193 181 182 194 200 194 192 204 202 206 219 225 222 231 217 215 211 203 208 204 196
161 160 159 167 177 179 179 182 183 186 183 173 174 179 183 187 196 201 198 195 195 191 186 181 191 199 198 195 200 202 207 211 220 221 222 231 215 222 217 214 213 209 201
159 161 165 172 176 174 175 179 182 178 172 170 176 185 191 193 198 197 193 191 186 184 190 191 195 199 200 200 202 202 211 218 224 221 222 228 219 221 218 218 214 200 189
155 162 175 175 170 171 173 173 174 173 171 170 181 195 193 187 187 188 193 191 188 195 190 181 188 197 197 204 200 205 209 216 222 222 222 228 227 218 212 215 207 193 190
176 179 178 176 174 176 177 173 174 174 168 173 187 188 180 181 185 190 188 185 185 186 181 189 194 201 212 207 195 191 205 212 218 226 228 228 234 228 216 215 201 193 192
182 180 182 183 184 182 173 174 180 168 165 177 181 176 175 180 184 185 180 190 193 191 197 206 204 210 220 201 194 190 194 211 221 224 224 235 232 221 222 224 201 205 210
184 180 178 181 185 169 155 153 148 147 150 164 176 170 171 183 179 176 188 199 197 198 204 215 210 207 214 193 191 191 201 217 222 219 217 224 236 218 198 193 206 225 231
192 183 179 174 163 155 148 137 136 142 150 166 174 175 177 181 182 188 197 198 191 196 201 210 201 201 223 201 193 183 199 219 238 235 225 223 228 225 197 192 222 254 261
141 137 116 92 105 128 131 132 142 148 167 185 186 178 173 176 186 190 190 186 186 193 187 204 203 202 221 215 200 194 193 211 245 247 234 225 223 225 201 212 221 246 258
107 115 110 108 125 128 123 134 146 171 184 172 168 174 178 183 187 175 161 153 158 166 169 184 215 217 231 227 202 189 189 205 230 249 248 237 221 226 221 217 223 238 243
95 106 115 112 110 119 129 148 175 185 167 149 150 163 168 175 164 154 155 150 148 154 159 162 234 270 246 221 201 187 199 204 210 233 243 246 232 233 231 230 245 244 228
109 110 127 128 122 127 147 161 197 174 150 138 157 163 162 166 160 161 159 153 156 162 170 180 213 252 268 238 199 195 208 211 213 234 236 234 225 232 230 240 239 218 210
115 118 123 136 152 165 168 180 183 149 136 151 166 160 152 144 139 145 156 160 167 171 178 192 212 231 237 229 211 216 217 213 219 237 241 225 207 223 251 262 249 229 224
114 134 145 164 201 182 157 168 149 136 139 149 153 152 150 142 126 108 105 149 202 201 193 201 197 200 227 236 216 204 213 212 207 173 134 295 262 254 258 257 255 246 236
143 126 134 157 262 206 176 129 157 152 154 156 162 161 150 136 130 122 77 47 53 64 178 192 190 213 220 215 217 236 232 198 164 151 200 240 245 248 253 255 256 249 247